User: anonymous   Login
Location: Churchill
(58.7670°N, 94.1670°W)
Time: 08:02:09
(UTC-05:00)
Language:

Cosmos 1315 Rocket - Orbit

View from above orbital plane
View from above orbital plane
View from above satellite
View from above satellite

Ground track
Ground track

The orbit data is extracted from the following two-line orbital elements,

1 12904U 81103B   15141.16305029  .00001781  00000-0  12564-3 0  9995
2 12904 081.1791 060.6768 0030076 040.1663 320.1774 15.04117807378820
Epoch (UTC): 21 May 2015 03:54:47
Eccentricity: 0.0030076
inclination: 81.1791°
perigee height: 533 km
apogee height: 575 km
right ascension of ascending node: 60.6768°
argument of perigee: 40.1663°
revolutions per day: 15.04117807
mean anomaly at epoch: 320.1774°
orbit number at epoch: 37882

The dashed part of the orbit path shows where the satellite is in the earth's shadow,  

DLR